User: anonymous   Login
Location: Étang Rond
(42.7927°N, 1.0661°E)
Time: 22:36:36
(UTC+00:00)
Language:

Cosmos 1420 Rocket - Orbit

View from above orbital plane
View from above orbital plane
View from above satellite
View from above satellite

Ground track
Ground track

The orbit is defined by the following mean orbital elements,

1 13649U          26020.33956036 +.00000000 +00000-0 +11476-3 0 00003
2 13649  74.0016 342.8678 0017029 125.5871 343.3366 14.38582249    03
Epoch (UTC): 20 January 2026 08:08:58
Eccentricity: 0.0017029
inclination: 74.0016°
perigee height: 751 km
apogee height: 775 km
right ascension of ascending node: 342.8678°
argument of perigee: 125.5871°
revolutions per day: 14.38582249
mean anomaly at epoch: 343.3366°

The dashed part of the orbit path shows where the satellite is in the earth's shadow,  

DLR